When you browse on this site, cookies collect data to enhance your experience and personalize the content and advertising you see.
Visit our Privacy Policy to learn more. By continuing to use the site, you agree to this use of cookies and data.
  • In Lithuania
  • List of Countries
  • For 7 days
  • Water Temperature
  • Satellite Maps
  • Weather Map
  • Weather Widgets
  • user-avatar
    Login

    Hourly Weather Adelaide

    Today, 24 March, Sunday

    Time Temperature Precipitation Wind Pressure Humidity
    00:00 +21°C° 0 mm 1 mps 755 mmHg 83%
    01:00 +21°C° 0 mm 1 mps 754 mmHg 84%
    02:00 +21°C° 0 mm 1 mps 754 mmHg 86%
    03:00 +18°C° 0 mm 0 mps 754 mmHg 86%
    04:00 +18°C° 0 mm 0 mps 753 mmHg 86%
    05:00 +18°C° 0 mm 0 mps 753 mmHg 85%
    06:00 +18°C° 0 mm 0 mps 753 mmHg 85%
    07:00 +22°C° 0 mm 1 mps 753 mmHg 77%
    08:00 +23°C° 0 mm 2 mps 753 mmHg 69%
    09:00 +25°C° 0 mm 2 mps 752 mmHg 60%
    10:00 +25°C° 0 mm 3 mps 752 mmHg 60%
    11:00 +25°C° 0 mm 4 mps 751 mmHg 60%
    12:00 +25°C° 0 mm 4 mps 751 mmHg 59%
    13:00 +25°C° 0 mm 5 mps 750 mmHg 61%
    14:00 +24°C° 0 mm 6 mps 750 mmHg 62%
    15:00 +24°C° 0 mm 7 mps 750 mmHg 63%
    16:00 +23°C° 0 mm 7 mps 750 mmHg 63%
    17:00 +22°C° 0 mm 8 mps 750 mmHg 62%
    18:00 +22°C° 0 mm 8 mps 750 mmHg 62%
    19:00 +21°C° 0.1 mm 8 mps 751 mmHg 63%
    20:00 +21°C° 0.1 mm 9 mps 751 mmHg 64%
    21:00 +19°C° 0.1 mm 9 mps 752 mmHg 65%
    22:00 +18°C° 0.1 mm 9 mps 752 mmHg 64%
    23:00 +18°C° 0.1 mm 9 mps 752 mmHg 62%

    Tomorrow, 25 March, Monday

    Time Temperature Precipitation Wind Pressure Humidity
    00:00 +17°C° 0.1 mm 9 mps 752 mmHg 60%
    01:00 +17°C° 0.1 mm 9 mps 753 mmHg 60%
    02:00 +16°C° 0.1 mm 8 mps 753 mmHg 60%
    03:00 +16°C° 0.1 mm 8 mps 753 mmHg 60%
    04:00 +15°C° 0.1 mm 8 mps 754 mmHg 60%
    05:00 +15°C° 0.1 mm 8 mps 754 mmHg 60%
    06:00 +15°C° 0.1 mm 8 mps 755 mmHg 59%
    07:00 +15°C° 0.1 mm 8 mps 756 mmHg 57%
    08:00 +15°C° 0.1 mm 8 mps 756 mmHg 56%
    09:00 +15°C° 0.1 mm 8 mps 757 mmHg 54%
    10:00 +16°C° 0 mm 7 mps 757 mmHg 51%
    11:00 +16°C° 0 mm 7 mps 758 mmHg 49%
    12:00 +17°C° 0 mm 6 mps 758 mmHg 46%
    13:00 +17°C° 0 mm 6 mps 758 mmHg 45%
    14:00 +17°C° 0 mm 6 mps 758 mmHg 44%
    15:00 +17°C° 0 mm 6 mps 758 mmHg 43%
    16:00 +16°C° 0 mm 5 mps 758 mmHg 45%
    17:00 +16°C° 0 mm 5 mps 759 mmHg 48%
    18:00 +15°C° 0 mm 5 mps 759 mmHg 50%
    19:00 +14°C° 0 mm 4 mps 760 mmHg 53%
    20:00 +14°C° 0 mm 4 mps 761 mmHg 55%
    21:00 +13°C° 0 mm 3 mps 762 mmHg 57%
    22:00 +13°C° 0 mm 3 mps 762 mmHg 59%
    23:00 +14°C° 0 mm 4 mps 762 mmHg 60%

    Day after tomorrow, 26 March, Tuesday

    Time Temperature Precipitation Wind Pressure Humidity
    00:00 +14°C° 0 mm 4 mps 762 mmHg 61%
    01:00 +13°C° 0 mm 3 mps 762 mmHg 63%
    02:00 +13°C° 0 mm 3 mps 762 mmHg 64%
    03:00 +13°C° 0 mm 3 mps 762 mmHg 66%
    04:00 +13°C° 0 mm 3 mps 763 mmHg 67%
    05:00 +14°C° 0 mm 2 mps 763 mmHg 68%
    06:00 +14°C° 0 mm 2 mps 764 mmHg 68%
    07:00 +16°C° 0 mm 2 mps 764 mmHg 63%
    08:00 +17°C° 0 mm 3 mps 764 mmHg 58%
    09:00 +18°C° 0 mm 3 mps 765 mmHg 53%
    10:00 +19°C° 0 mm 3 mps 765 mmHg 52%
    11:00 +20°C° 0 mm 3 mps 765 mmHg 51%
    12:00 +20°C° 0 mm 3 mps 764 mmHg 50%
    13:00 +20°C° 0 mm 3 mps 764 mmHg 51%
    14:00 +21°C° 0 mm 3 mps 764 mmHg 51%
    15:00 +21°C° 0 mm 3 mps 763 mmHg 51%
    16:00 +20°C° 0 mm 3 mps 763 mmHg 54%
    17:00 +19°C° 0 mm 3 mps 764 mmHg 57%
    18:00 +19°C° 0 mm 2 mps 764 mmHg 59%
    19:00 +18°C° 0 mm 2 mps 764 mmHg 64%
    20:00 +17°C° 0 mm 2 mps 765 mmHg 69%
    21:00 +16°C° 0 mm 2 mps 765 mmHg 75%
    22:00 +16°C° 0 mm 2 mps 765 mmHg 77%
    23:00 +16°C° 0 mm 2 mps 765 mmHg 80%

    27 March, Wednesday

    Time Temperature Precipitation Wind Pressure Humidity
    00:00 +15°C° 0 mm 1 mps 765 mmHg 83%
    01:00 +15°C° 0 mm 1 mps 765 mmHg 84%
    02:00 +15°C° 0 mm 1 mps 764 mmHg 85%
    03:00 +15°C° 0 mm 1 mps 764 mmHg 86%
    04:00 +15°C° 0 mm 1 mps 764 mmHg 86%
    05:00 +15°C° 0 mm 1 mps 764 mmHg 86%
    06:00 +14°C° 0 mm 1 mps 765 mmHg 87%
    07:00 +16°C° 0 mm 1 mps 765 mmHg 76%
    08:00 +20°C° 0 mm 1 mps 765 mmHg 65%
    09:00 +22°C° 0 mm 1 mps 765 mmHg 55%
    10:00 +23°C° 0 mm 1 mps 765 mmHg 50%
    11:00 +24°C° 0 mm 1 mps 764 mmHg 45%
    12:00 +26°C° 0 mm 1 mps 764 mmHg 41%
    13:00 +26°C° 0 mm 2 mps 763 mmHg 41%
    14:00 +25°C° 0 mm 2 mps 762 mmHg 42%
    15:00 +25°C° 0 mm 3 mps 761 mmHg 43%
    16:00 +24°C° 0 mm 3 mps 761 mmHg 48%
    17:00 +22°C° 0 mm 3 mps 761 mmHg 54%
    18:00 +20°C° 0 mm 3 mps 761 mmHg 59%
    19:00 +19°C° 0 mm 3 mps 761 mmHg 64%
    20:00 +19°C° 0 mm 3 mps 761 mmHg 69%
    21:00 +18°C° 0 mm 3 mps 761 mmHg 74%
    22:00 +18°C° 0 mm 2 mps 761 mmHg 75%
    23:00 +17°C° 0 mm 2 mps 760 mmHg 76%

    28 March, Thursday

    Time Temperature Precipitation Wind Pressure Humidity
    00:00 +17°C° 0 mm 2 mps 760 mmHg 77%
    01:00 +17°C° 0 mm 2 mps 760 mmHg 75%
    02:00 +18°C° 0 mm 1 mps 759 mmHg 73%
    03:00 +18°C° 0 mm 1 mps 759 mmHg 72%
    04:00 +18°C° 0 mm 1 mps 759 mmHg 69%
    05:00 +18°C° 0 mm 1 mps 759 mmHg 67%
    06:00 +18°C° 0 mm 1 mps 759 mmHg 65%
    07:00 +20°C° 0 mm 1 mps 759 mmHg 56%
    08:00 +21°C° 0 mm 2 mps 759 mmHg 47%
    09:00 +24°C° 0 mm 2 mps 759 mmHg 39%
    10:00 +25°C° 0 mm 2 mps 759 mmHg 37%
    11:00 +26°C° 0 mm 3 mps 758 mmHg 35%
    12:00 +27°C° 0 mm 3 mps 758 mmHg 34%
    13:00 +27°C° 0 mm 3 mps 757 mmHg 34%
    14:00 +27°C° 0 mm 3 mps 757 mmHg 35%
    15:00 +27°C° 0 mm 3 mps 756 mmHg 35%
    16:00 +25°C° 0 mm 3 mps 756 mmHg 41%
    17:00 +24°C° 0 mm 3 mps 756 mmHg 47%
    18:00 +21°C° 0 mm 2 mps 756 mmHg 53%
    19:00 +20°C° 0 mm 3 mps 757 mmHg 59%
    20:00 +20°C° 0 mm 3 mps 757 mmHg 65%
    21:00 +19°C° 0 mm 3 mps 757 mmHg 70%
    22:00 +18°C° 0 mm 3 mps 757 mmHg 75%
    23:00 +18°C° 0 mm 3 mps 757 mmHg 79%

    29 March, Friday

    Time Temperature Precipitation Wind Pressure Humidity
    00:00 +17°C° 0 mm 2 mps 756 mmHg 83%
    01:00 +17°C° 0 mm 3 mps 756 mmHg 85%
    02:00 +17°C° 0 mm 3 mps 757 mmHg 87%
    03:00 +17°C° 0 mm 3 mps 757 mmHg 89%
    04:00 +17°C° 0.1 mm 4 mps 757 mmHg 85%
    05:00 +16°C° 0.1 mm 5 mps 758 mmHg 82%
    06:00 +16°C° 0.1 mm 6 mps 758 mmHg 79%
    07:00 +17°C° 0 mm 6 mps 758 mmHg 72%
    08:00 +17°C° 0 mm 6 mps 759 mmHg 65%
    09:00 +17°C° 0 mm 5 mps 759 mmHg 58%
    10:00 +19°C° 0 mm 5 mps 759 mmHg 55%
    11:00 +19°C° 0 mm 6 mps 759 mmHg 52%
    12:00 +19°C° 0 mm 6 mps 759 mmHg 48%
    13:00 +19°C° 0 mm 6 mps 759 mmHg 48%
    14:00 +19°C° 0 mm 6 mps 759 mmHg 48%
    15:00 +19°C° 0 mm 6 mps 759 mmHg 48%
    16:00 +17°C° 0 mm 6 mps 759 mmHg 52%
    17:00 +16°C° 0 mm 6 mps 760 mmHg 56%
    18:00 +15°C° 0 mm 6 mps 760 mmHg 59%
    19:00 +14°C° 0 mm 5 mps 761 mmHg 60%
    20:00 +14°C° 0 mm 5 mps 761 mmHg 61%
    21:00 +13°C° 0 mm 4 mps 762 mmHg 62%
    22:00 +13°C° 0 mm 4 mps 762 mmHg 63%
    23:00 +13°C° 0 mm 4 mps 762 mmHg 64%
    Show more